This is the latest recevied weather packets stored in our database for station/object KC9EGS. If no packets are shown the sender has not sent any weather packets the latest 10 day(s).
| Time | Temp. | Humidity | Pressure | Rain* | Wind** | Luminosity | Snow |
|---|---|---|---|---|---|---|---|
| 1777920016 | 18.33° C | 27% | 988.8 hPa | 0 mm | - | - | - |
| 1777919721 | 18.33° C | 28% | 988.8 hPa | 0 mm | - | - | - |
| 1777919115 | 18.33° C | 26% | 988.7 hPa | 0 mm | - | - | - |
| 1777918521 | 18.33° C | 23% | 988.7 hPa | 0 mm | - | - | - |
| 1777918216 | 17.78° C | 23% | 989 hPa | 0 mm | - | - | - |
| 1777917921 | 18.33° C | 23% | 989 hPa | 0 mm | - | - | - |
| 1777917317 | 18.89° C | 22% | 988.4 hPa | 0 mm | - | - | - |
| 1777916721 | 18.89° C | 25% | 988.4 hPa | 0 mm | - | - | - |
| 1777916416 | 18.89° C | 27% | 988.4 hPa | 0 mm | - | - | - |
| 1777916120 | 18.89° C | 27% | 988.4 hPa | 0 mm | - | - | - |
| 1777915514 | 18.33° C | 28% | 988.3 hPa | 0 mm | - | - | - |
| 1777914921 | 18.33° C | 39% | 988.3 hPa | 0 mm | - | - | - |
| 1777914615 | 18.33° C | 39% | 988.1 hPa | 0 mm | - | - | - |
| 1777914321 | 18.33° C | 39% | 988.1 hPa | 0 mm | - | - | - |
| 1777913716 | 18.33° C | 39% | 988.1 hPa | 0 mm | - | - | - |
| 1777913120 | 17.78° C | 41% | 988.1 hPa | 0 mm | - | - | - |
| 1777912816 | 17.78° C | 40% | 988.2 hPa | 0 mm | - | - | - |
| 1777912521 | 17.78° C | 39% | 988.2 hPa | 0 mm | - | - | - |
| 1777911916 | 17.22° C | 38% | 988.3 hPa | 0 mm | - | - | - |
| 1777911321 | 17.22° C | 41% | 988.3 hPa | 0 mm | - | - | - |
| 1777911014 | 17.22° C | 41% | 988 hPa | 0 mm | - | - | - |
| 1777910721 | 17.22° C | 42% | 988 hPa | 0 mm | - | - | - |
| 1777910114 | 17.22° C | 40% | 988 hPa | 0 mm | - | - | - |
| 1777909521 | 17.22° C | 44% | 988 hPa | 0 mm | - | - | - |
| 1777909214 | 17.22° C | 44% | 988 hPa | 0 mm | - | - | - |
* Rain latest hour (hover to see other rain measurements)
** Current wind speed in m/s (hover to see current wind gust speed)